Regional Weather Roundup
Issued by NWS

Home | Current Version | Previous Version | Graphics & Text | Print | Product List | Glossary On
Versions: 1 2 3 4 5 6 7 8 9 10 11 12 13 14 15 16 17 18 19 20 21 22 23 24 25 26 27 28 29 30 31 32 33 34 35 36 37 38 39 40 41 42 43 44 45 46 47 48 49 50
000
ASUS45 KSLC 291410
RWRUT

UTAH REGIONAL WEATHER ROUNDUP
NATIONAL WEATHER SERVICE SALT LAKE CITY UT
800 AM MDT WED JUL 29 2015

UTZ001>011-023>025-291500-

NORTHERN UTAH

CITY           SKY/WX    TMP DP  RH WIND       PRES   REMARKS
BRIGHAM CITY   SUNNY     52  35  54 NW7       30.31R
HILL AFB       SUNNY     54  30  40 E16G23    30.31R
LOGAN          SUNNY     48  39  71 CALM      30.35R
OGDEN          SUNNY     61  32  33 NE7       30.30R
PROVO AIRPORT  NOT AVBL
SALT LAKE CITY MOSUNNY   61  40  45 CALM      30.29R
VERNAL         SUNNY     63  28  26 N6        30.33R
WENDOVER       SUNNY     63  34  34 CALM      30.29R
HEBER CITY     SUNNY     45  32  61 CALM      30.40R
WEST JORDAN    SUNNY     61  32  33 CALM      30.31R

$$

UTZ012>022-026-027-291500-

SOUTHERN/CENTRAL UTAH

CITY           SKY/WX    TMP DP  RH WIND       PRES   REMARKS
BLANDING       SUNNY     69  35  28 CALM      30.34R
BRYCE CANYON   SUNNY     51  33  50 W7        30.43R
CEDAR CITY     SUNNY     58  28  32 CALM      30.31R
DELTA          SUNNY     56  26  31 CALM      30.30R
HANKSVILLE     SUNNY     63  28  27 CALM      30.24R
MILFORD        NOT AVBL
MOAB/CYNLANDS  SUNNY     66  30  26 CALM      30.20R
PRICE          SUNNY     68  21  16 CALM      30.31R
ST GEORGE      SUNNY     73  32  21 S5        30.12R
KANAB          MOSUNNY   66  34  30 N10       30.28R

$$

REGIONAL REPORTS     COLORADO/ARIZONA

CITY           SKY/WX    TMP DP  RH WIND       PRES   REMARKS
CRAIG, CO      SUNNY     49  38  65 CALM      30.39R
GRAND JUNCTION SUNNY     65  36  34 S8        30.25R
RIFLE          SUNNY     59  39  47 CALM      30.34R
MONTROSE       SUNNY     62  37  39 SE9       30.34R
CORTEZ         SUNNY     60  41  49 CALM      30.29R
PAGE, AZ       MOSUNNY   77  33  20 CALM      30.16R
GRAND CANYON   MOSUNNY   57  31  37 CALM      30.33R
KINGMAN        PTSUNNY   81  38  21 VRB3      30.10R
FLAGSTAFF      MOSUNNY   57  51  80 SW3       30.35S

$$

REGIONAL REPORTS    NEVADA/IDAHO/WYOMING

CITY           SKY/WX    TMP DP  RH WIND       PRES   REMARKS
LAS VEGAS, NV  MOSUNNY   85  32  15 CALM      29.97R
ELY            SUNNY     47  23  38 S10       30.37R
ELKO           SUNNY     52  29  41 SE3       30.31R
POCATELLO, ID  SUNNY     50  40  68 CALM      30.35R
BURLEY         SUNNY     49  40  71 NE5       30.31R
EVANSTON, WY   SUNNY     49  25  39 CALM      30.44R
ROCK SPRINGS   SUNNY     51  25  36 W3        30.43R
KEMMERER       SUNNY     43  32  65 N10       30.46R

$$



USA.gov is the U.S. government's official web portal to all federal, state and local government web resources and services.